Location: Montr�al
(45.5000°N, 73.5830°W)
Time: 18:51:50
(UTC-05:00)

ISS - All Passes

Search period start: 07 February 2016 00:00
Search period end: 17 February 2016 00:00
Orbit: 399 x 408 km, 51.6° (Epoch: 07 February)

Date Brightness Start Highest point End Pass type
(mag) Time Alt. Az. Time Alt. Az. Time Alt. Az.
07 Feb - 16:29:34 10° SSW 16:32:29 31° SE 16:35:24 10° ENE daylight
07 Feb - 18:05:41 10° W 18:08:51 48° NNW 18:12:01 10° NE visible
07 Feb - 19:42:58 10° WNW 19:45:47 26° N 19:48:36 10° ENE visible
07 Feb - 21:19:39 10° NW 21:22:46 41° NNE 21:25:53 10° E night (unlit)
07 Feb - 22:56:10 10° WNW 22:59:14 40° SW 23:02:18 10° SE night (unlit)
08 Feb - 15:37:48 10° S 15:40:05 18° SE 15:42:21 10° E daylight
08 Feb - 17:12:58 10° WSW 17:16:12 74° NNW 17:19:28 10° ENE daylight
08 Feb - 18:50:09 10° WNW 18:53:01 28° N 18:55:54 10° NE visible
08 Feb - 20:27:05 10° NW 20:30:04 32° NNE 20:33:02 10° ENE visible
08 Feb - 22:03:29 10° WNW 22:06:43 71° SSW 22:09:57 10° SE night (unlit)
08 Feb - 23:41:52 10° WSW 23:42:39 11° SW 23:43:25 10° SW night (unlit)
09 Feb - 16:20:24 10° SW 16:23:37 66° SSE 16:26:51 10° ENE daylight
09 Feb - 17:57:16 10° W 18:00:16 33° NNW 18:03:15 10° NE visible
09 Feb - 19:34:26 10° NW 19:37:17 28° N 19:40:09 10° ENE visible
09 Feb - 21:10:53 10° WNW 21:14:08 69° NNE 21:17:22 10° ESE night (unlit)
09 Feb - 22:47:54 10° W 22:50:17 19° SW 22:52:40 10° S night (unlit)
10 Feb - 15:28:03 10° SSW 15:31:06 37° SE 15:34:07 10° ENE daylight
10 Feb - 17:04:24 10° W 17:07:31 43° NNW 17:10:39 10° NE daylight
10 Feb - 18:41:40 10° WNW 18:44:29 26° N 18:47:18 10° ENE visible
10 Feb - 20:18:17 10° NW 20:21:27 46° NNE 20:24:35 10° E visible
10 Feb - 21:54:52 10° WNW 21:57:50 33° SW 22:00:47 10° SSE night (unlit)
11 Feb - 14:36:04 10° S 14:38:36 21° SE 14:41:09 10° E daylight
11 Feb - 16:11:35 10° WSW 16:14:49 64° NNW 16:18:03 10° ENE daylight
11 Feb - 17:48:49 10° WNW 17:51:40 27° N 17:54:31 10° NE visible
11 Feb - 19:25:40 10° NW 19:28:41 34° NNE 19:31:42 10° E visible
11 Feb - 21:02:05 10° WNW 21:05:17 60° SW 21:08:28 10° SE visible
12 Feb - 13:44:51 10° SSE 13:46:11 12° SE 13:47:30 10° ESE daylight
12 Feb - 15:18:54 10° SW 15:22:09 79° SSE 15:25:24 10° ENE daylight
12 Feb - 16:55:52 10° WNW 16:58:50 31° NNW 17:01:47 10° NE daylight
12 Feb - 18:32:58 10° NW 18:35:52 29° N 18:38:46 10° ENE visible
12 Feb - 20:09:24 10° WNW 20:12:39 81° NNE 20:15:54 10° ESE visible
12 Feb - 21:46:39 10° W 21:48:43 16° SW 21:50:48 10° S night (unlit)
13 Feb - 14:26:24 10° SW 14:29:31 44° SE 14:32:39 10° ENE daylight
13 Feb - 16:02:55 10° W 16:06:01 39° NNW 16:09:07 10° NE daylight
13 Feb - 17:40:11 10° WNW 17:43:01 26° N 17:45:50 10° ENE daylight
13 Feb - 19:16:44 10° NW 19:19:55 51° NNE 19:23:06 10° E visible
13 Feb - 20:53:24 10° W 20:56:14 28° SW 20:59:03 10° SSE visible
14 Feb - 13:34:13 10° SSW 13:36:57 25° SE 13:39:42 10° E daylight
14 Feb - 15:10:01 10° WSW 15:13:14 56° NNW 15:16:27 10° ENE daylight
14 Feb - 16:47:17 10° WNW 16:50:07 27° N 16:52:58 10° ENE daylight
14 Feb - 18:24:04 10° NW 18:27:07 37° NNE 18:30:11 10° E visible
14 Feb - 20:00:30 10° WNW 20:03:40 50° SW 20:06:48 10° SE visible
15 Feb - 12:42:36 10° SSE 12:44:27 14° SE 12:46:19 10° E daylight
15 Feb - 14:17:13 10° WSW 14:20:29 89° NNW 14:23:45 10° ENE daylight
15 Feb - 15:54:18 10° WNW 15:57:13 29° N 16:00:09 10° NE daylight
15 Feb - 17:31:19 10° NW 17:34:16 30° N 17:37:11 10° ENE daylight
15 Feb - 19:07:44 10° WNW 19:10:59 87° SSW 19:14:13 10° ESE visible
15 Feb - 20:45:19 10° WSW 20:46:59 13° SW 20:48:40 10° SSW visible
16 Feb - 13:24:37 10° SW 13:27:47 53° SE 13:30:59 10° ENE daylight
16 Feb - 15:01:17 10° W 15:04:20 36° NNW 15:07:23 10° NE daylight
16 Feb - 16:38:30 10° WNW 16:41:21 27° N 16:44:11 10° ENE daylight
16 Feb - 18:15:01 10° WNW 18:18:13 58° NNE 18:21:26 10° ESE visible
16 Feb - 19:51:48 10° W 19:54:28 24° SW 19:57:07 10° SSE visible
